RH
51 53 51 48 49 49 51 54 57 60 61 64 68 61 46 40 37 33 28 26 28 25 20 17 15 16 19 20 25 32 30 24 21 21 23 27 29 28 25 23 22 21
59 60 57 54 57 59 57 57 58 61 58 57 60 54 42 39 37 31 27 26 25 19 14 14 13 13 18 19 21 25 20 13 12 13 13 14 15 15 14 12 12 12
60 63 61 60 63 63 61 59 57 58 56 53 52 46 38 38 36 31 28 27 25 20 14 14 13 12 14 14 15 16 13 10 11 11 11 11 11 10 10 10 10 10
54 60 64 64 64 63 63 61 55 51 51 50 47 41 37 38 34 30 28 28 28 23 15 13 13 13 13 13 13 13 11 11 10 10 10 10 10 11 11 12 14 16
50 50 55 57 58 57 59 59 52 46 47 49 46 39 39 38 33 29 27 28 30 24 16 15 15 16 17 17 18 18 17 17 17 17 17 16 17 18 20 22 23 25
48 43 45 50 53 54 57 55 48 44 45 48 45 39 38 35 30 29 29 29 32 26 19 18 20 21 23 24 26 27 28 29 27 27 26 25 26 27 28 30 31 32
46 45 46 49 53 55 55 53 49 47 46 46 44 41 38 33 29 30 31 34 35 29 24 25 27 28 31 33 34 33 33 34 33 33 33 31 31 32 33 34 35 35
47 46 45 47 49 50 50 49 49 48 44 41 41 42 39 33 29 30 33 36 37 33 31 31 32 35 37 38 38 37 37 37 37 39 39 36 35 37 36 36 37 37
49 46 45 43 41 42 45 47 48 46 42 39 39 41 41 35 30 30 33 37 39 38 38 38 38 40 41 42 42 41 40 40 40 42 42 40 42 43 42 40 41 41
51 48 47 44 39 40 44 47 48 46 43 43 42 40 40 39 34 32 34 37 40 42 42 42 42 42 43 45 47 46 45 44 44 43 43 45 48 49 48 47 47 48
55 51 48 45 42 43 46 47 49 49 46 47 47 42 39 40 39 38 37 38 40 43 45 45 45 46 46 48 49 50 49 48 48 48 47 47 49 50 52 54 56 59
58 54 51 48 46 48 48 46 48 51 48 45 45 42 39 38 39 40 38 38 40 43 46 47 49 49 50 50 52 53 53 52 52 52 52 52 52 54 56 59 62 66
58 57 54 53 52 51 48 46 48 52 50 45 41 40 39 39 41 43 43 43 43 42 44 48 53 55 55 56 57 57 57 57 56 56 58 59 61 64 66 67 68 70
55 56 55 56 55 54 51 48 50 54 55 51 45 41 40 41 42 44 45 48 49 47 46 49 52 55 57 61 64 65 63 62 62 62 64 67 70 72 73 73 74 75
52 54 55 54 53 55 55 53 52 55 59 60 55 49 46 45 45 44 43 45 48 51 52 53 54 56 60 64 68 70 70 69 68 68 71 74 78 78 77 77 77 78
50 51 52 52 51 52 53 54 54 56 58 62 62 61 57 54 52 50 46 45 47 49 53 56 60 63 66 69 71 71 73 75 75 75 77 80 81 81 80 79 80 81
51 50 50 49 49 50 52 54 55 55 55 56 59 61 60 57 55 54 52 49 49 49 50 54 60 63 66 70 74 74 74 76 78 79 82 83 84 83 81 80 82 84
50 50 49 47 46 47 49 52 54 55 55 53 54 56 57 56 55 55 55 54 53 53 55 58 61 62 66 72 77 76 75 77 81 84 86 88 87 85 82 83 85 87
47 49 49 49 48 46 45 47 49 51 52 53 54 57 59 60 60 58 58 58 58 58 61 63 62 61 65 71 75 75 73 75 81 85 85 87 89 86 84 85 87 85
44 46 49 50 50 49 47 46 46 49 51 52 54 58 61 62 62 62 61 61 61 62 63 64 62 63 68 71 74 75 69 69 77 82 82 85 89 86 81 81 80 77
40 41 43 45 47 48 48 46 46 47 50 52 54 57 58 58 58 59 58 57 58 61 63 63 62 62 64 66 70 72 66 62 70 79 84 88 87 81 76 73 69 65
40 41 41 43 45 47 48 48 48 49 50 52 55 58 59 57 55 54 54 54 55 57 61 63 62 59 59 60 64 67 65 65 71 79 84 86 82 78 75 69 61 57
43 43 45 45 45 47 49 49 49 49 50 51 52 56 59 59 57 55 56 58 58 59 61 62 61 60 60 61 65 67 68 70 75 77 80 81 79 75 69 62 56 54
47 47 46 45 44 47 50 51 50 50 50 50 51 54 55 56 57 60 62 63 63 64 66 65 63 62 62 65 69 72 73 74 76 75 75 75 72 65 58 55 53 51
49 48 46 44 43 44 45 49 52 53 53 53 55 57 56 54 57 63 68 70 71 72 72 69 65 63 65 70 74 75 74 76 77 73 67 63 61 57 53 52 51 50
48 46 45 43 43 42 40 42 45 48 49 50 55 61 60 58 63 70 74 77 79 81 80 74 68 67 69 72 75 75 72 71 71 66 59 55 54 53 51 49 48 49